Regional Weather Roundup
Issued by NWS Albany, NY

Current Version | Previous Version | Text Only | Print | Product List | Glossary On
Versions: 1 2 3 4 5 6 7 8 9 10 11 12 13 14 15 16 17 18 19 20 21 22 23 24 25 26 27 28 29 30 31 32 33 34 35 36 37 38 39 40 41 42 43 44 45 46 47 48 49 50
000
ASUS41 KALY 260610
RWRALY

NEW YORK STATE HOURLY WEATHER ROUNDUP
NATIONAL WEATHER SERVICE ALBANY NY
100 AM EST WED NOV 26 2014

NOTE: "FAIR" INDICATES FEW OR NO CLOUDS BELOW 12,000 FEET WITH NO
SIGNIFICANT WEATHER AND/OR NO OBSTRUCTIONS TO VISIBILITY.

NYZ032-033-038>043-046>054-057>066-NYZ062>081-260700-
EAST


CITY           SKY/WX    TMP DP  RH WIND       PRES   REMARKS
ALBANY         CLOUDY    40  29  64 NW8       30.18R WCI  34
GLENS FALLS    CLOUDY    38  28  67 SW7       30.15S WCI  33
POUGHKEEPSIE   PTCLDY    38  31  76 N10       30.15R WCI  31
MONTGOMERY     MOCLDY    34  29  82 CALM      30.15R
WHITE PLAINS   CLOUDY    46  29  51 VRB3      30.13F
ISLIP          CLOUDY    48  33  56 W6        30.14R
NEW YORK CITY  CLOUDY    51  29  42 NW8       30.15F
CENTRAL PARK   CLOUDY    51  27  39 VRB5      30.17F
$$

NYZ005>009-017-018-044>046-055-056-260700-
CENTRAL


CITY           SKY/WX    TMP DP  RH WIND       PRES   REMARKS
FULTON         CLOUDY    37  25  61 W6        30.21R WCI  32
SYRACUSE       CLOUDY    37  25  61 W7        30.21S WCI  32
ROME           CLOUDY    36  28  73 W7        30.22S WCI  30
ELMIRA         CLOUDY    31  26  82 CALM      30.15F
BINGHAMTON     CLOUDY    33  27  78 N9        30.12F WCI  25
MONTICELLO     MOCLDY    34  27  75 N6        30.14F WCI  29
$$

NYZ026>034-041>043-260700-
NORTH


CITY           SKY/WX    TMP DP  RH WIND       PRES   REMARKS
WATERTOWN      MOCLDY    38  24  57 W13       30.19S WCI  30
FORT DRUM      NOT AVBL
MASSENA        CLOUDY    35  24  64 SW12      30.17R WCI  27
SARANAC LAKE   CLOUDY    31  22  69 SW12G20   30.11R WCI  22
PLATTSBURGH    CLOUDY    38  22  52 W3        30.17R
$$

NYZ001>004-010>016-019>021-260700-
WEST


CITY           SKY/WX    TMP DP  RH WIND       PRES   REMARKS
NIAGARA FALLS  CLOUDY    33  21  61 W7        30.19S WCI  27
BUFFALO        CLOUDY    34  20  56 NW10      30.18F WCI  26
DUNKIRK        CLOUDY    35  26  69 W7        30.18F WCI  29
JAMESTOWN      CLOUDY    30  21  69 W3        30.14R
WELLSVILLE     CLOUDY    31  23  72 NW8       30.13F WCI  23
ROCHESTER      CLOUDY    35  23  61 W3        30.20S
PENN YAN       CLOUDY    34  24  67 NW9       30.20R WCI  27
$$

             KEY
       WCI = WIND CHILL INDEX
       VSB = VISIBILITY
       HX  = HEAT INDEX
$$


USA.gov is the U.S. government's official web portal to all federal, state and local government web resources and services.